Powrót do katalogu

ARIANE 44L R/B

AktywnyHEO
NORAD 27402·ROCKET BODY·🇫🇷 France

Wystrzelony Mar 29, 2002 z Guiana Space Centre

Loading…

Następne Przeloty (najbliższe 24 godziny)

TLE

ŚwieżeSource: Space-Track

Epoka: Sep 14, 2026, 06:15 UTC

1 27402U 02015D   26257.26093420  .00003348  00000-0  28603-2 0  9990
2 27402   3.7452 349.2753 7001043 201.4238 100.9363  2.60104361219508

Śledź ARIANE 44L R/B w czasie rzeczywistym z AllMySat

Download on the App Store